Вернуться в каталог

ICEYE-X51

АктивенНаукаSSO
NORAD 63257·PAYLOAD·🇺🇸 United States

Запущен Mar 15, 2025 с Vandenberg Space Force Base

Loading…

Ближайшие Пролёты (ближайшие 24 часа)

TLE

СвежийSource: Space-Track

Эпоха: Sep 14, 2026, 20:40 UTC

1 63257U 25052AZ  26257.86121865  .00003772  00000-0  30130-3 0  9995
2 63257  97.7701 152.8601 0001854  61.0141 299.1268 15.00867786 82252

Отслеживайте ICEYE-X51 в реальном времени с AllMySat

Download on the App Store